Terminal Aerodrome Forecast
Issued by NWS Sterling, VA

Current Version | Previous Version | Graphics & Text | Print | Product List | Glossary On
Versions: 1 2 3 4 5 6 7 8 9 10 11 12 13 14
000
FTUS41 KLWX 121700
TAFMRB
TAF
KMRB 121728Z 1218/1318 01006KT P6SM SCT050 BKN250
     FM130600 00000KT P6SM BKN090
     FM131200 VRB03KT P6SM -SHRA OVC025=

USA.gov is the U.S. government's official web portal to all federal, state and local government web resources and services.